UAL679 KLAX-KLAS

Flight info

Callsign UAL679
Flight time N/A
Altitude 25000
Route ORCKA5 MISEN RNDRZ4
Aircraft B739/M-SDE2E3FGHIRWXY/LB1

Departure

Time 2026-05-04 03:41
Airport Los Angeles International Airport (KLAX)

Arrival

Time N/A
Airport Harry Reid International Airport (KLAS)
Time Latitude Longitude Altitude Speed Heading
2026-05-04 03:18 33.94159 -118.40029 94 ft 0 kts 90°
2026-05-04 03:29 33.94159 -118.40052 95 ft 3 kts 91°
2026-05-04 03:29 33.94159 -118.40075 94 ft 1 kts 105°
2026-05-04 03:29 33.94166 -118.40085 94 ft 2 kts 162°
2026-05-04 03:29 33.94177 -118.40088 94 ft 1 kts 171°
2026-05-04 03:30 33.94185 -118.40090 93 ft 1 kts 172°
2026-05-04 03:30 33.94188 -118.40090 93 ft 0 kts 172°
2026-05-04 03:32 33.94185 -118.40090 93 ft 1 kts 172°
2026-05-04 03:32 33.94161 -118.40086 94 ft 6 kts 173°
2026-05-04 03:33 33.94129 -118.40081 96 ft 4 kts 173°
2026-05-04 03:33 33.94099 -118.40077 96 ft 4 kts 173°
2026-05-04 03:33 33.94070 -118.40072 97 ft 4 kts 173°
2026-05-04 03:33 33.94040 -118.40068 95 ft 4 kts 173°
2026-05-04 03:34 33.94010 -118.40064 96 ft 5 kts 173°
2026-05-04 03:34 33.93971 -118.40058 98 ft 7 kts 173°
2026-05-04 03:34 33.93924 -118.40048 98 ft 7 kts 161°
2026-05-04 03:34 33.93889 -118.40014 102 ft 7 kts 127°
2026-05-04 03:35 33.93883 -118.39960 104 ft 8 kts 84°
2026-05-04 03:35 33.93890 -118.39878 103 ft 12 kts 84°
2026-05-04 03:35 33.93902 -118.39766 102 ft 14 kts 83°
2026-05-04 03:35 33.93914 -118.39653 102 ft 12 kts 83°
2026-05-04 03:36 33.93924 -118.39552 102 ft 12 kts 83°
2026-05-04 03:36 33.93934 -118.39454 101 ft 12 kts 83°
2026-05-04 03:36 33.93944 -118.39358 100 ft 11 kts 83°
2026-05-04 03:36 33.93953 -118.39265 100 ft 11 kts 83°
2026-05-04 03:37 33.93963 -118.39174 100 ft 11 kts 83°
2026-05-04 03:37 33.93972 -118.39086 101 ft 10 kts 83°
2026-05-04 03:37 33.93980 -118.39000 101 ft 10 kts 83°
2026-05-04 03:37 33.93989 -118.38916 101 ft 10 kts 83°
2026-05-04 03:38 33.93999 -118.38820 99 ft 13 kts 83°
2026-05-04 03:38 33.94011 -118.38700 101 ft 16 kts 83°
2026-05-04 03:38 33.94025 -118.38567 102 ft 16 kts 83°
2026-05-04 03:38 33.94038 -118.38442 102 ft 14 kts 83°
2026-05-04 03:39 33.94050 -118.38327 102 ft 14 kts 83°
2026-05-04 03:39 33.94060 -118.38220 102 ft 13 kts 83°
2026-05-04 03:39 33.94071 -118.38116 102 ft 12 kts 83°
2026-05-04 03:39 33.94077 -118.38035 102 ft 9 kts 97°
2026-05-04 03:40 33.94030 -118.37997 107 ft 9 kts 175°
2026-05-04 03:40 33.93984 -118.38031 109 ft 10 kts 256°
2026-05-04 03:40 33.93949 -118.38379 109 ft 78 kts 263°
2026-05-04 03:40 33.93856 -118.39290 105 ft 138 kts 263°
2026-05-04 03:41 33.93712 -118.40617 255 ft 173 kts 263°
2026-05-04 03:41 33.93554 -118.42030 982 ft 172 kts 262°
2026-05-04 03:41 33.93399 -118.43507 1702 ft 177 kts 264°
2026-05-04 03:41 33.93254 -118.44999 2213 ft 194 kts 264°
2026-05-04 03:42 33.93028 -118.46707 2471 ft 217 kts 253°
2026-05-04 03:42 33.92506 -118.48463 3056 ft 227 kts 250°
2026-05-04 03:42 33.91921 -118.50255 3816 ft 232 kts 249°
2026-05-04 03:42 33.91306 -118.52063 4645 ft 235 kts 248°
2026-05-04 03:43 33.90662 -118.53909 5393 ft 238 kts 248°
2026-05-04 03:43 33.89945 -118.55696 6271 ft 241 kts 233°
2026-05-04 03:43 33.88634 -118.56979 6943 ft 249 kts 205°
2026-05-04 03:43 33.86938 -118.57371 7780 ft 252 kts 179°
2026-05-04 03:44 33.85237 -118.56794 8525 ft 261 kts 152°
2026-05-04 03:44 33.83921 -118.55274 9282 ft 270 kts 124°
2026-05-04 03:44 33.83323 -118.53106 9993 ft 280 kts 96°
2026-05-04 03:44 33.83608 -118.50776 10632 ft 288 kts 68°
2026-05-04 03:45 33.84787 -118.48772 11018 ft 306 kts 39°
2026-05-04 03:45 33.86660 -118.47407 11213 ft 326 kts 24°
2026-05-04 03:45 33.88796 -118.46234 11393 ft 348 kts 23°
2026-05-04 03:45 33.91035 -118.44963 11802 ft 362 kts 27°
2026-05-04 03:46 33.93093 -118.43233 12413 ft 368 kts 42°
2026-05-04 03:46 33.94779 -118.40907 13108 ft 371 kts 56°
2026-05-04 03:46 33.96221 -118.38308 13785 ft 376 kts 58°
2026-05-04 03:46 33.97663 -118.35646 14338 ft 382 kts 57°
2026-05-04 03:47 33.99153 -118.32954 14841 ft 390 kts 56°
2026-05-04 03:47 34.00696 -118.30213 15359 ft 397 kts 56°
2026-05-04 03:47 34.02265 -118.27446 15883 ft 403 kts 55°
2026-05-04 03:47 34.03859 -118.24642 16402 ft 409 kts 55°
2026-05-04 03:48 34.05458 -118.21825 16898 ft 415 kts 55°
2026-05-04 03:48 34.07095 -118.18936 17387 ft 421 kts 54°
2026-05-04 03:48 34.08764 -118.15987 17892 ft 427 kts 54°
2026-05-04 03:48 34.10451 -118.13003 18372 ft 433 kts 54°
2026-05-04 03:49 34.12156 -118.09983 18826 ft 437 kts 54°
2026-05-04 03:49 34.13874 -118.06938 19319 ft 440 kts 54°
2026-05-04 03:49 34.15605 -118.03868 19828 ft 443 kts 54°
2026-05-04 03:49 34.17348 -118.00772 20334 ft 447 kts 54°
2026-05-04 03:50 34.19107 -117.97647 20814 ft 451 kts 54°
2026-05-04 03:50 34.20874 -117.94504 21258 ft 455 kts 54°
2026-05-04 03:50 34.22661 -117.91322 21738 ft 459 kts 54°
2026-05-04 03:50 34.24455 -117.88125 22270 ft 459 kts 54°
2026-05-04 03:51 34.26243 -117.84935 22905 ft 458 kts 54°
2026-05-04 03:51 34.28028 -117.81745 23548 ft 457 kts 54°
2026-05-04 03:51 34.29810 -117.78559 24059 ft 458 kts 53°
2026-05-04 03:51 34.31597 -117.75363 24588 ft 457 kts 54°
2026-05-04 03:52 34.33382 -117.72170 24842 ft 456 kts 54°
2026-05-04 03:52 34.35148 -117.69005 24981 ft 453 kts 53°
2026-05-04 03:52 34.36957 -117.65866 24952 ft 457 kts 52°
2026-05-04 03:52 34.38821 -117.62744 24954 ft 458 kts 51°
2026-05-04 03:53 34.40700 -117.59636 24946 ft 458 kts 51°
2026-05-04 03:53 34.42582 -117.56526 24950 ft 458 kts 51°
2026-05-04 03:53 34.44461 -117.53406 24951 ft 458 kts 51°
2026-05-04 03:53 34.46329 -117.50291 24959 ft 457 kts 51°
2026-05-04 03:54 34.48198 -117.47159 24968 ft 457 kts 52°
2026-05-04 03:54 34.50052 -117.44045 24974 ft 456 kts 52°
2026-05-04 03:54 34.51885 -117.40960 24982 ft 456 kts 52°
2026-05-04 03:54 34.53738 -117.37834 24981 ft 455 kts 52°
2026-05-04 03:55 34.55583 -117.34722 24980 ft 455 kts 52°
2026-05-04 03:55 34.57429 -117.31606 24981 ft 454 kts 52°
2026-05-04 03:55 34.59273 -117.28489 24986 ft 454 kts 52°
2026-05-04 03:55 34.61115 -117.25376 24973 ft 454 kts 52°
2026-05-04 03:56 34.62955 -117.22262 24960 ft 454 kts 52°
2026-05-04 03:56 34.64794 -117.19147 24944 ft 453 kts 52°
2026-05-04 03:56 34.66629 -117.16037 24927 ft 453 kts 52°
2026-05-04 03:56 34.68467 -117.12919 24907 ft 453 kts 52°
2026-05-04 03:57 34.70301 -117.09803 24894 ft 453 kts 52°
2026-05-04 03:57 34.72136 -117.06685 24838 ft 453 kts 52°
2026-05-04 03:57 34.73968 -117.03568 24838 ft 453 kts 52°
2026-05-04 03:57 34.75800 -117.00448 24848 ft 453 kts 52°
2026-05-04 03:58 34.79471 -116.94189 24863 ft 454 kts 52°
2026-05-04 03:58 34.81305 -116.91059 24865 ft 454 kts 52°
2026-05-04 03:58 34.83138 -116.87926 24872 ft 454 kts 52°
2026-05-04 03:59 34.84972 -116.84788 24876 ft 455 kts 52°
2026-05-04 03:59 34.86187 -116.82709 24872 ft 455 kts 52°
2026-05-04 03:59 34.88020 -116.79569 24877 ft 456 kts 52°
2026-05-04 03:59 34.89860 -116.76416 24872 ft 456 kts 52°
2026-05-04 04:00 34.91696 -116.73265 24872 ft 457 kts 52°
2026-05-04 04:00 34.93527 -116.70090 24869 ft 458 kts 53°
2026-05-04 04:00 34.95335 -116.66897 24862 ft 458 kts 53°
2026-05-04 04:00 34.97140 -116.63687 24849 ft 458 kts 53°
2026-05-04 04:01 34.98938 -116.60484 24840 ft 459 kts 53°
2026-05-04 04:01 35.00742 -116.57275 24827 ft 459 kts 53°
2026-05-04 04:01 35.02543 -116.54073 24822 ft 458 kts 53°
2026-05-04 04:01 35.04346 -116.50868 24814 ft 457 kts 53°
2026-05-04 04:02 35.06145 -116.47671 24817 ft 457 kts 53°
2026-05-04 04:02 35.07922 -116.44509 24816 ft 456 kts 53°
2026-05-04 04:02 35.09702 -116.41339 24801 ft 448 kts 53°
2026-05-04 04:02 35.11574 -116.38355 24801 ft 437 kts 45°
2026-05-04 04:03 35.13641 -116.35655 24670 ft 436 kts 41°
2026-05-04 04:03 35.15785 -116.33037 24430 ft 434 kts 41°
2026-05-04 04:03 35.17912 -116.30427 24205 ft 431 kts 42°
2026-05-04 04:03 35.19980 -116.27806 23973 ft 428 kts 43°
2026-05-04 04:04 35.22023 -116.25167 23736 ft 425 kts 43°
2026-05-04 04:04 35.24022 -116.22520 23404 ft 422 kts 45°
2026-05-04 04:04 35.25971 -116.19842 22981 ft 420 kts 46°
2026-05-04 04:04 35.27897 -116.17171 22548 ft 417 kts 46°
2026-05-04 04:05 35.29816 -116.14522 22144 ft 414 kts 45°
2026-05-04 04:05 35.31727 -116.11897 21743 ft 411 kts 46°
2026-05-04 04:05 35.33619 -116.09301 21401 ft 406 kts 46°
2026-05-04 04:05 35.35494 -116.06727 21024 ft 403 kts 46°
2026-05-04 04:06 35.37331 -116.04204 20642 ft 401 kts 46°
2026-05-04 04:06 35.39182 -116.01658 20251 ft 399 kts 46°
2026-05-04 04:06 35.41026 -115.99122 19855 ft 397 kts 47°
2026-05-04 04:06 35.42855 -115.96602 19476 ft 395 kts 47°
2026-05-04 04:07 35.44671 -115.94099 19083 ft 393 kts 47°
2026-05-04 04:07 35.46480 -115.91602 18693 ft 390 kts 47°
2026-05-04 04:07 35.48277 -115.89122 18307 ft 385 kts 48°
2026-05-04 04:07 35.50039 -115.86686 17879 ft 376 kts 48°
2026-05-04 04:08 35.51743 -115.84330 17583 ft 362 kts 49°
2026-05-04 04:08 35.53393 -115.82047 17268 ft 354 kts 49°
2026-05-04 04:08 35.55018 -115.79797 16926 ft 351 kts 49°
2026-05-04 04:08 35.56635 -115.77557 16550 ft 349 kts 49°
2026-05-04 04:09 35.58239 -115.75334 16182 ft 346 kts 49°
2026-05-04 04:09 35.59834 -115.73133 15922 ft 340 kts 49°
2026-05-04 04:09 35.61411 -115.71000 15755 ft 334 kts 49°
2026-05-04 04:09 35.62972 -115.68901 15597 ft 331 kts 49°
2026-05-04 04:10 35.64530 -115.66804 15422 ft 333 kts 49°
2026-05-04 04:10 35.66081 -115.64712 15280 ft 336 kts 49°
2026-05-04 04:10 35.67661 -115.62577 15113 ft 336 kts 49°
2026-05-04 04:10 35.69226 -115.60461 14930 ft 334 kts 49°
2026-05-04 04:11 35.70790 -115.58344 14765 ft 333 kts 50°
2026-05-04 04:11 35.72349 -115.56241 14587 ft 332 kts 48°
2026-05-04 04:11 35.74159 -115.54496 14414 ft 332 kts 31°
2026-05-04 04:11 35.76166 -115.53107 14261 ft 331 kts 30°
2026-05-04 04:12 35.78181 -115.51748 14087 ft 330 kts 30°
2026-05-04 04:12 35.80189 -115.50384 13919 ft 329 kts 30°
2026-05-04 04:12 35.82189 -115.49007 13761 ft 329 kts 31°
2026-05-04 04:12 35.84175 -115.47625 13580 ft 328 kts 31°
2026-05-04 04:13 35.86157 -115.46237 13402 ft 327 kts 31°
2026-05-04 04:13 35.88131 -115.44852 13224 ft 326 kts 31°
2026-05-04 04:13 35.90096 -115.43471 13054 ft 325 kts 31°
2026-05-04 04:13 35.92080 -115.42080 12718 ft 330 kts 31°
2026-05-04 04:14 35.94080 -115.40685 12344 ft 331 kts 31°
2026-05-04 04:14 35.96081 -115.39290 11967 ft 329 kts 31°
2026-05-04 04:14 35.98065 -115.37906 11632 ft 323 kts 31°
2026-05-04 04:14 35.99877 -115.36344 11200 ft 313 kts 50°
2026-05-04 04:15 36.01007 -115.34156 10977 ft 298 kts 72°
2026-05-04 04:15 36.01461 -115.31681 10745 ft 296 kts 91°
2026-05-04 04:15 36.01404 -115.29132 10572 ft 298 kts 97°
2026-05-04 04:15 36.01255 -115.26562 10343 ft 301 kts 97°
2026-05-04 04:16 36.01098 -115.23984 10130 ft 297 kts 97°
2026-05-04 04:16 36.00956 -115.21506 9878 ft 290 kts 97°
2026-05-04 04:16 36.00825 -115.19049 9685 ft 282 kts 97°
2026-05-04 04:16 36.00700 -115.16627 9465 ft 276 kts 97°
2026-05-04 04:17 36.00582 -115.14295 9265 ft 269 kts 97°
2026-05-04 04:17 36.00470 -115.12065 9059 ft 256 kts 97°
2026-05-04 04:17 36.00363 -115.09922 8874 ft 246 kts 97°
2026-05-04 04:17 36.00255 -115.07828 8666 ft 243 kts 97°
2026-05-04 04:18 36.00147 -115.05743 8459 ft 243 kts 97°
2026-05-04 04:18 36.00039 -115.03655 8255 ft 245 kts 97°
2026-05-04 04:18 35.99930 -115.01539 8012 ft 247 kts 96°
2026-05-04 04:18 35.99887 -114.99413 7704 ft 249 kts 94°
2026-05-04 04:19 35.99879 -114.97263 7350 ft 250 kts 93°
2026-05-04 04:19 35.99877 -114.95111 7065 ft 250 kts 91°